| time (UTC) | temp F | wind direction | speed MPH | gust MPH | rain 1hr in | rain 24hr in | rain mn in | humidity % | barometer mb |
| 20260507113611 | 57 | 0.0 | 2.0 | 0.00 | 0.00 | 0.00 | 53 | 1053.8 | |
| 20260507112530 | 57 | 0.0 | 0.0 | 0.00 | 0.00 | 0.00 | 52 | 1054.0 | |
| 20260507111528 | 57 | 0.0 | 0.0 | 0.00 | 0.00 | 0.00 | 54 | 1053.9 | |
| 20260507110600 | 57 | 0.0 | 0.0 | 0.00 | 0.00 | 0.00 | 54 | 1054.0 | |
| 20260507105612 | 57 | 0.0 | 0.0 | 0.00 | 0.00 | 0.00 | 53 | 1054.1 | |
| 20260507104527 | 56 | 0.0 | 0.0 | 0.00 | 0.00 | 0.00 | 54 | 1054.0 | |
| 20260507103552 | 57 | 0.0 | 0.0 | 0.00 | 0.00 | 0.00 | 55 | 1054.1 | |
| 20260507102639 | 57 | 0.0 | 0.0 | 0.00 | 0.00 | 0.00 | 56 | 1054.2 | |
| 20260507101557 | 57 | 0.0 | 0.0 | 0.00 | 0.00 | 0.00 | 57 | 1054.2 | |
| 20260507100548 | 56 | 0.0 | 0.0 | 0.00 | 0.00 | 0.00 | 55 | 1054.2 | |
| 20260507095536 | 56 | 0.0 | 0.0 | 0.00 | 0.00 | 0.00 | 57 | 1054.2 | |
| 20260507094528 | 56 | 0.0 | 0.0 | 0.00 | 0.00 | 0.00 | 60 | 1054.2 | |
| 20260507093536 | 56 | 0.0 | 0.0 | 0.00 | 0.00 | 0.00 | 61 | 1054.2 | |
| 20260507092552 | 57 | 0.0 | 2.0 | 0.00 | 0.00 | 0.00 | 58 | 1054.2 | |
| 20260507091535 | 56 | 0.0 | 0.0 | 0.00 | 0.00 | 0.00 | 58 | 1054.1 | |
| 20260507090551 | 56 | 0.0 | 0.0 | 0.00 | 0.00 | 0.00 | 59 | 1054.1 | |
| 20260507090058 | 55 | 0.0 | 0.0 | 0.00 | 0.00 | 0.00 | 58 | 1054.3 | |
| 20260507084524 | 54 | 0.0 | 0.0 | 0.00 | 0.00 | 0.00 | 62 | 1054.4 | |
| 20260507083522 | 54 | 0.0 | 0.0 | 0.00 | 0.00 | 0.00 | 63 | 1054.6 | |
| 20260507082539 | 54 | 0.0 | 0.0 | 0.00 | 0.00 | 0.00 | 64 | 1054.2 | |
| 20260507081648 | 54 | 0.0 | 0.0 | 0.00 | 0.00 | 0.00 | 65 | 1054.4 | |
| 20260507080611 | 53 | 0.0 | 0.0 | 0.00 | 0.00 | 0.00 | 65 | 1054.2 | |
| 20260507075529 | 53 | 0.0 | 0.0 | 0.00 | 0.00 | 0.00 | 66 | 1054.3 | |
| 20260507074557 | 52 | 0.0 | 0.0 | 0.00 | 0.00 | 0.00 | 69 | 1054.2 | |
| 20260507073543 | 52 | 0.0 | 0.0 | 0.00 | 0.00 | 0.00 | 69 | 1054.4 | |
| 20260507072539 | 51 | 0.0 | 0.0 | 0.00 | 0.00 | 0.00 | 69 | 1054.1 | |
| 20260507071528 | 51 | 0.0 | 0.0 | 0.00 | 0.00 | 0.00 | 71 | 1054.2 | |
| 20260507070529 | 51 | 0.0 | 0.0 | 0.00 | 0.00 | 0.00 | 70 | 1054.2 | |
| 20260507065537 | 50 | 0.0 | 0.0 | 0.00 | 0.00 | 0.00 | 72 | 1053.9 | |
| 20260507064526 | 50 | 0.0 | 0.0 | 0.00 | 0.00 | 0.00 | 71 | 1053.9 | |
| 20260507063602 | 49 | 0.0 | 0.0 | 0.00 | 0.00 | 0.00 | 77 | 1054.1 | |
| 20260507062601 | 49 | 0.0 | 0.0 | 0.00 | 0.00 | 0.00 | 77 | 1054.2 | |
| 20260507061041 | 46 | 0.0 | 0.0 | 0.00 | 0.00 | 0.00 | 87 | 1053.9 | |
| 20260507060047 | 44 | 0.0 | 0.0 | 0.00 | 0.00 | 0.00 | 93 | 1054.0 | |
| 20260507055048 | 43 | 0.0 | 0.0 | 0.00 | 0.00 | 0.00 | 94 | 1053.9 | |
| 20260507054052 | 43 | 0.0 | 0.0 | 0.00 | 0.00 | 0.00 | 94 | 1053.9 | |
| 20260507053116 | 42 | 0.0 | 0.0 | 0.00 | 0.00 | 0.00 | 94 | 1053.9 | |
| 20260507052047 | 42 | 0.0 | 0.0 | 0.00 | 0.00 | 0.00 | 94 | 1053.9 | |
| 20260507051034 | 41 | 0.0 | 0.0 | 0.00 | 0.00 | 0.00 | 94 | 1053.8 | |
| 20260507050057 | 41 | 0.0 | 0.0 | 0.00 | 0.00 | 0.00 | 94 | 1053.8 | |
| 20260507045037 | 41 | 0.0 | 0.0 | 0.00 | 0.00 | 0.00 | 94 | 1053.6 | |
| 20260507044059 | 41 | 0.0 | 0.0 | 0.00 | 0.00 | 0.00 | 94 | 1053.5 | |
| 20260507043218 | 41 | 0.0 | 0.0 | 0.00 | 0.00 | 0.00 | 94 | 1053.5 | |
| 20260507042021 | 41 | 0.0 | 0.0 | 0.00 | 0.00 | 0.00 | 93 | 1053.3 | |
| 20260507041159 | 41 | 0.0 | 0.0 | 0.00 | 0.00 | 0.00 | 93 | 1053.5 | |
| 20260507040041 | 42 | 0.0 | 0.0 | 0.00 | 0.00 | 0.00 | 92 | 1053.2 | |
| 20260507035056 | 42 | 0.0 | 0.0 | 0.00 | 0.00 | 0.00 | 92 | 1053.1 | |
| 20260507034201 | 43 | 0.0 | 0.0 | 0.00 | 0.00 | 0.00 | 92 | 1053.2 | |
| 20260507033040 | 43 | 0.0 | 0.0 | 0.00 | 0.00 | 0.00 | 92 | 1053.2 | |
| 20260507032149 | 43 | 0.0 | 0.0 | 0.00 | 0.00 | 0.00 | 91 | 1053.2 | |
| 20260507031045 | 44 | 0.0 | 0.0 | 0.00 | 0.00 | 0.00 | 90 | 1053.3 | |
| 20260507030111 | 44 | 0.0 | 0.0 | 0.00 | 0.00 | 0.00 | 90 | 1053.2 | |
| 20260507025115 | 45 | 0.0 | 0.0 | 0.00 | 0.00 | 0.00 | 89 | 1053.2 | |
| 20260507024054 | 45 | 0.0 | 0.0 | 0.00 | 0.00 | 0.00 | 88 | 1053.3 | |
| 20260507023046 | 46 | 0.0 | 0.0 | 0.00 | 0.00 | 0.00 | 87 | 1053.4 | |
| 20260507022057 | 46 | 0.0 | 0.0 | 0.00 | 0.00 | 0.00 | 86 | 1053.2 | |
| 20260507021051 | 46 | 0.0 | 0.0 | 0.00 | 0.00 | 0.00 | 86 | 1053.2 | |
| 20260507020059 | 47 | 0.0 | 0.0 | 0.00 | 0.00 | 0.00 | 85 | 1053.2 | |
| 20260507015132 | 47 | 0.0 | 0.0 | 0.00 | 0.00 | 0.00 | 85 | 1053.2 | |
| 20260507014044 | 47 | 0.0 | 0.0 | 0.00 | 0.00 | 0.00 | 85 | 1053.0 | |
| 20260507013102 | 47 | 0.0 | 0.0 | 0.00 | 0.00 | 0.00 | 84 | 1053.0 | |
| 20260507012057 | 47 | 0.0 | 0.0 | 0.00 | 0.00 | 0.00 | 82 | 1053.1 | |
| 20260507011212 | 47 | 0.0 | 0.0 | 0.00 | 0.00 | 0.00 | 81 | 1053.2 | |
| 20260507010034 | 47 | 0.0 | 0.0 | 0.00 | 0.00 | 0.00 | 81 | 1053.0 | |
| 20260507005036 | 47 | 0.0 | 0.0 | 0.00 | 0.00 | 0.00 | 80 | 1053.2 | |
| 20260507004022 | 47 | 0.0 | 0.0 | 0.00 | 0.00 | 0.00 | 81 | 1053.0 | |
| 20260507003052 | 48 | 0.0 | 0.0 | 0.00 | 0.00 | 0.00 | 80 | 1052.9 | |
| 20260507002553 | 48 | 0.0 | 0.0 | 0.00 | 0.00 | 0.00 | 80 | 1052.9 | |
| 20260507001040 | 48 | 0.0 | 0.0 | 0.00 | 0.00 | 0.00 | 81 | 1053.0 | |
| 20260507000058 | 48 | 0.0 | 0.0 | 0.00 | 0.00 | 0.00 | 81 | 1053.1 | |
| 20260506235132 | 48 | 0.0 | 0.0 | 0.00 | 0.00 | 0.00 | 81 | 1052.9 | |
| 20260506234133 | 48 | 0.0 | 0.0 | 0.00 | 0.00 | 0.00 | 81 | 1053.1 | |
| 20260506233043 | 48 | 0.0 | 0.0 | 0.00 | 0.00 | 0.00 | 82 | 1053.0 | |
| 20260506232025 | 48 | 0.0 | 0.0 | 0.00 | 0.00 | 0.00 | 82 | 1052.9 | |
| 20260506231138 | 48 | 0.0 | 0.0 | 0.00 | 0.00 | 0.00 | 82 | 1052.9 | |
| 20260506230106 | 48 | 0.0 | 0.0 | 0.00 | 0.00 | 0.00 | 82 | 1052.9 | |
| 20260506225056 | 48 | 0.0 | 0.0 | 0.00 | 0.00 | 0.00 | 82 | 1052.7 | |
| 20260506224025 | 48 | 0.0 | 0.0 | 0.00 | 0.00 | 0.00 | 82 | 1052.8 | |
| 20260506223027 | 48 | 0.0 | 0.0 | 0.00 | 0.00 | 0.00 | 82 | 1052.7 | |
| 20260506222054 | 48 | 0.0 | 0.0 | 0.00 | 0.00 | 0.00 | 83 | 1052.7 | |
| 20260506221207 | 48 | 0.0 | 0.0 | 0.00 | 0.00 | 0.00 | 83 | 1052.8 | |
| 20260506220038 | 48 | 0.0 | 0.0 | 0.00 | 0.00 | 0.00 | 83 | 1052.4 | |
| 20260506215149 | 48 | 0.0 | 0.0 | 0.00 | 0.00 | 0.00 | 84 | 1052.5 | |
| 20260506214058 | 48 | 0.0 | 0.0 | 0.00 | 0.00 | 0.00 | 85 | 1052.5 | |
| 20260506213038 | 48 | 0.0 | 0.0 | 0.00 | 0.00 | 0.00 | 85 | 1052.5 | |
| 20260506212107 | 48 | 0.0 | 0.0 | 0.00 | 0.00 | 0.00 | 85 | 1052.5 | |
| 20260506211057 | 48 | 0.0 | 0.0 | 0.00 | 0.00 | 0.00 | 86 | 1052.4 | |
| 20260506210100 | 48 | 0.0 | 0.0 | 0.00 | 0.00 | 0.00 | 86 | 1052.2 | |
| 20260506205307 | 48 | 0.0 | 0.0 | 0.00 | 0.00 | 0.00 | 86 | 1052.2 | |
| 20260506204025 | 48 | 0.0 | 0.0 | 0.00 | 0.00 | 0.00 | 86 | 1052.2 | |
| 20260506203027 | 48 | 0.0 | 0.0 | 0.00 | 0.00 | 0.00 | 85 | 1052.2 | |
| 20260506202032 | 48 | 343 | 0.0 | 2.0 | 0.00 | 0.00 | 0.00 | 85 | 1052.2 |
| 20260506201040 | 48 | 304 | 0.0 | 5.0 | 0.00 | 0.00 | 0.00 | 84 | 1052.2 |
| 20260506200056 | 49 | 0.0 | 0.0 | 0.00 | 0.00 | 0.00 | 84 | 1051.9 | |
| 20260506194719 | 49 | 0.0 | 0.0 | 0.00 | 0.00 | 0.00 | 83 | 1052.1 | |
| 20260506193522 | 50 | 343 | 0.0 | 2.0 | 0.00 | 0.00 | 0.00 | 82 | 1051.9 |
| 20260506192626 | 50 | 0.0 | 0.0 | 0.00 | 0.00 | 0.00 | 81 | 1051.9 | |
| 20260506191526 | 50 | 341 | 0.0 | 2.0 | 0.00 | 0.00 | 0.00 | 80 | 1051.9 |
| 20260506190700 | 50 | 0.0 | 0.0 | 0.00 | 0.00 | 0.00 | 79 | 1051.2 | |
| 20260506185625 | 50 | 0.0 | 0.0 | 0.00 | 0.00 | 0.00 | 79 | 1051.5 | |
| 20260506184916 | 51 | 0.0 | 2.0 | 0.00 | 0.00 | 0.00 | 78 | 1051.4 | |
| 20260506183536 | 51 | 0.0 | 0.0 | 0.00 | 0.00 | 0.00 | 77 | 1051.4 | |
| 20260506182613 | 52 | 333 | 1.0 | 2.0 | 0.00 | 0.00 | 0.00 | 76 | 1051.3 |
| 20260506181536 | 53 | 313 | 1.0 | 5.0 | 0.00 | 0.00 | 0.00 | 75 | 1051.2 |
| 20260506180530 | 53 | 325 | 0.0 | 2.0 | 0.00 | 0.00 | 0.00 | 73 | 1051.2 |
| 20260506175524 | 52 | 12 | 1.0 | 8.0 | 0.00 | 0.00 | 0.00 | 72 | 1050.9 |
| 20260506174557 | 52 | 326 | 2.0 | 13.0 | 0.00 | 0.00 | 0.00 | 73 | 1051.1 |
| 20260506173522 | 52 | 297 | 1.0 | 5.0 | 0.00 | 0.00 | 0.00 | 72 | 1050.9 |
| 20260506172617 | 53 | 14 | 2.0 | 5.0 | 0.00 | 0.00 | 0.00 | 72 | 1050.7 |
| 20260506171536 | 54 | 314 | 2.0 | 8.0 | 0.00 | 0.00 | 0.00 | 68 | 1050.8 |
| 20260506170602 | 55 | 0.0 | 2.0 | 0.00 | 0.00 | 0.00 | 64 | 1050.5 | |
| 20260506165552 | 55 | 0.0 | 2.0 | 0.00 | 0.00 | 0.00 | 64 | 1050.6 | |
| 20260506164735 | 54 | 336 | 0.0 | 2.0 | 0.00 | 0.00 | 0.00 | 64 | 1050.5 |
| 20260506163700 | 54 | 0.0 | 0.0 | 0.00 | 0.00 | 0.00 | 63 | 1050.5 | |
| 20260506162600 | 55 | 347 | 2.0 | 8.0 | 0.00 | 0.00 | 0.00 | 62 | 1050.9 |
| 20260506161544 | 55 | 341 | 2.0 | 5.0 | 0.00 | 0.00 | 0.00 | 61 | 1050.7 |
| 20260506160540 | 55 | 284 | 0.0 | 5.0 | 0.00 | 0.00 | 0.00 | 59 | 1050.7 |
| 20260506155604 | 56 | 328 | 1.0 | 5.0 | 0.00 | 0.00 | 0.00 | 59 | 1050.9 |
| 20260506154540 | 57 | 323 | 2.0 | 10.0 | 0.00 | 0.00 | 0.00 | 60 | 1050.9 |
| 20260506153719 | 57 | 310 | 2.0 | 8.0 | 0.00 | 0.00 | 0.00 | 55 | 1050.7 |
| 20260506152605 | 57 | 15 | 2.0 | 8.0 | 0.00 | 0.00 | 0.00 | 57 | 1050.7 |
| 20260506151531 | 57 | 75 | 2.0 | 10.0 | 0.00 | 0.00 | 0.00 | 57 | 1050.5 |
| 20260506150718 | 56 | 33 | 2.0 | 10.0 | 0.00 | 0.00 | 0.00 | 57 | 1050.7 |
| 20260506145559 | 56 | 186 | 2.0 | 8.0 | 0.00 | 0.00 | 0.00 | 56 | 1050.7 |
| 20260506144533 | 56 | 339 | 1.0 | 10.0 | 0.00 | 0.00 | 0.00 | 58 | 1050.5 |
| 20260506143539 | 56 | 349 | 1.0 | 8.0 | 0.00 | 0.00 | 0.00 | 58 | 1050.5 |
| 20260506142540 | 57 | 0.0 | 2.0 | 0.00 | 0.00 | 0.00 | 56 | 1050.5 | |
| 20260506141541 | 57 | 48 | 0.0 | 2.0 | 0.00 | 0.00 | 0.00 | 54 | 1050.5 |
| 20260506140602 | 57 | 11 | 1.0 | 8.0 | 0.00 | 0.00 | 0.00 | 52 | 1050.5 |
| 20260506135527 | 57 | 341 | 0.0 | 10.0 | 0.00 | 0.00 | 0.00 | 47 | 1050.5 |
| 20260506134601 | 57 | 320 | 0.0 | 5.0 | 0.00 | 0.00 | 0.00 | 47 | 1050.5 |
| 20260506133527 | 56 | 353 | 0.0 | 5.0 | 0.00 | 0.00 | 0.00 | 47 | 1050.7 |
| 20260506132653 | 56 | 329 | 0.0 | 8.0 | 0.00 | 0.00 | 0.00 | 49 | 1050.7 |
| 20260506131706 | 55 | 287 | 1.0 | 2.0 | 0.00 | 0.00 | 0.00 | 50 | 1050.9 |
| 20260506130049 | 55 | 336 | 1.0 | 2.0 | 0.00 | 0.00 | 0.00 | 51 | 1050.9 |
| 20260506125211 | 55 | 0.0 | 2.0 | 0.00 | 0.00 | 0.00 | 53 | 1050.9 | |
| 20260506124104 | 54 | 25 | 1.0 | 5.0 | 0.00 | 0.00 | 0.00 | 53 | 1050.9 |
| 20260506123039 | 54 | 355 | 1.0 | 8.0 | 0.00 | 0.00 | 0.00 | 54 | 1050.9 |
| 20260506122101 | 53 | 301 | 1.0 | 8.0 | 0.00 | 0.00 | 0.00 | 56 | 1050.9 |
| 20260506121045 | 53 | 92 | 1.0 | 5.0 | 0.00 | 0.00 | 0.00 | 58 | 1050.9 |
| 20260506120046 | 53 | 307 | 1.0 | 5.0 | 0.00 | 0.00 | 0.00 | 59 | 1050.8 |
| 20260506115026 | 53 | 303 | 3.0 | 10.0 | 0.00 | 0.00 | 0.00 | 61 | 1051.0 |
| 20260506114258 | 53 | 338 | 4.0 | 10.0 | 0.00 | 0.00 | 0.00 | 64 | 1050.9 |